Year,Month,Day,Hour,Minute,Value (Times are PST for temperature in C)
2014,05,02,00,00,11.40
2014,05,02,00,01,11.40
2014,05,02,00,02,11.40
2014,05,02,00,03,11.40
2014,05,02,00,04,11.40
2014,05,02,00,05,11.40
2014,05,02,00,06,11.40
2014,05,02,00,07,11.30
2014,05,02,00,08,11.20
2014,05,02,00,09,11.10
2014,05,02,00,10,11.10
2014,05,02,00,11,11.00
2014,05,02,00,12,11.00
2014,05,02,00,13,11.00
2014,05,02,00,14,10.90
2014,05,02,00,15,10.90
2014,05,02,00,16,10.90
2014,05,02,00,17,10.90
2014,05,02,00,18,10.80
2014,05,02,00,19,10.80
2014,05,02,00,20,10.80
2014,05,02,00,21,10.80
2014,05,02,00,22,10.80
2014,05,02,00,23,10.80
2014,05,02,00,24,10.80
2014,05,02,00,25,10.70
2014,05,02,00,26,10.80
2014,05,02,00,27,10.80
2014,05,02,00,28,10.90
2014,05,02,00,29,10.90
2014,05,02,00,30,10.90
2014,05,02,00,31,10.90
2014,05,02,00,32,11.00
2014,05,02,00,33,10.90
2014,05,02,00,34,10.90
2014,05,02,00,35,11.00
2014,05,02,00,36,11.10
2014,05,02,00,37,11.10
2014,05,02,00,38,11.10
2014,05,02,00,39,11.20
2014,05,02,00,40,11.10
2014,05,02,00,41,11.10
2014,05,02,00,42,11.10
2014,05,02,00,43,11.10
2014,05,02,00,44,11.10
2014,05,02,00,45,11.10
2014,05,02,00,46,11.10
2014,05,02,00,47,11.10
2014,05,02,00,48,11.10
2014,05,02,00,49,11.10
2014,05,02,00,50,11.10
2014,05,02,00,51,11.00
2014,05,02,00,52,10.90
2014,05,02,00,53,10.90
2014,05,02,00,54,10.90
2014,05,02,00,55,11.00
2014,05,02,00,56,11.00
2014,05,02,00,57,11.00
2014,05,02,00,58,11.00
2014,05,02,00,59,11.00
2014,05,02,01,00,10.90
2014,05,02,01,01,10.90
2014,05,02,01,02,10.80
2014,05,02,01,03,10.80
2014,05,02,01,04,10.70
2014,05,02,01,05,10.70
2014,05,02,01,06,10.70
2014,05,02,01,07,10.60
2014,05,02,01,08,10.60
2014,05,02,01,09,10.60
2014,05,02,01,10,10.60
2014,05,02,01,11,10.50
2014,05,02,01,12,10.50
2014,05,02,01,13,10.40
2014,05,02,01,14,10.40
2014,05,02,01,15,10.40
2014,05,02,01,16,10.40
2014,05,02,01,17,10.40
2014,05,02,01,18,10.40
2014,05,02,01,19,10.40
2014,05,02,01,20,10.40
2014,05,02,01,21,10.30
2014,05,02,01,22,10.30
2014,05,02,01,23,10.30
2014,05,02,01,24,10.30
2014,05,02,01,25,10.30
2014,05,02,01,26,10.40
2014,05,02,01,27,10.30
2014,05,02,01,28,10.30
2014,05,02,01,29,10.30
2014,05,02,01,30,10.30
2014,05,02,01,31,10.30
2014,05,02,01,32,10.30
2014,05,02,01,33,10.30
2014,05,02,01,34,10.30
2014,05,02,01,35,10.20
2014,05,02,01,36,10.20
2014,05,02,01,37,10.20
2014,05,02,01,38,10.20
2014,05,02,01,39,10.20
2014,05,02,01,40,10.20
2014,05,02,01,41,10.20
2014,05,02,01,42,10.20
2014,05,02,01,43,10.20
2014,05,02,01,44,10.20
2014,05,02,01,45,10.20
2014,05,02,01,46,10.20
2014,05,02,01,47,10.30
2014,05,02,01,48,10.30
2014,05,02,01,49,10.30
2014,05,02,01,50,10.40
2014,05,02,01,51,10.40
2014,05,02,01,52,10.40
2014,05,02,01,53,10.40
2014,05,02,01,54,10.40
2014,05,02,01,55,10.40
2014,05,02,01,56,10.40
2014,05,02,01,57,10.40
2014,05,02,01,58,10.40
2014,05,02,01,59,10.40
2014,05,02,02,00,10.40
2014,05,02,02,01,10.40
2014,05,02,02,02,10.40
2014,05,02,02,03,10.30
2014,05,02,02,04,10.30
2014,05,02,02,05,10.30
2014,05,02,02,06,10.30
2014,05,02,02,07,10.30
2014,05,02,02,08,10.20
2014,05,02,02,09,10.20
2014,05,02,02,10,10.10
2014,05,02,02,11,10.10
2014,05,02,02,12,10.10
2014,05,02,02,13,10.20
2014,05,02,02,14,10.20
2014,05,02,02,15,10.20
2014,05,02,02,16,10.10
2014,05,02,02,17,10.10
2014,05,02,02,18,10.00
2014,05,02,02,19,9.90
2014,05,02,02,20,9.80
2014,05,02,02,21,9.70
2014,05,02,02,22,9.60
2014,05,02,02,23,9.60
2014,05,02,02,24,9.60
2014,05,02,02,25,9.60
2014,05,02,02,26,9.60
2014,05,02,02,27,9.60
2014,05,02,02,28,9.50
2014,05,02,02,29,9.50
2014,05,02,02,30,9.50
2014,05,02,02,31,9.50
2014,05,02,02,32,9.50
2014,05,02,02,33,9.50
2014,05,02,02,34,9.50
2014,05,02,02,35,9.40
2014,05,02,02,36,9.40
2014,05,02,02,37,9.30
2014,05,02,02,38,9.30
2014,05,02,02,39,9.30
2014,05,02,02,40,9.30
2014,05,02,02,41,9.30
2014,05,02,02,42,9.30
2014,05,02,02,43,9.30
2014,05,02,02,44,9.30
2014,05,02,02,45,9.30
2014,05,02,02,46,9.20
2014,05,02,02,47,9.20
2014,05,02,02,48,9.20
2014,05,02,02,49,9.20
2014,05,02,02,50,9.30
2014,05,02,02,51,9.30
2014,05,02,02,52,9.40
2014,05,02,02,53,9.40
2014,05,02,02,54,9.40
2014,05,02,02,55,9.40
2014,05,02,02,56,9.40
2014,05,02,02,57,9.40
2014,05,02,02,58,9.40
2014,05,02,02,59,9.30
2014,05,02,03,00,9.30
2014,05,02,03,01,9.30
2014,05,02,03,02,9.20
2014,05,02,03,03,9.20
2014,05,02,03,06,9.10
2014,05,02,03,07,9.10
2014,05,02,03,08,9.20
2014,05,02,03,09,9.30
2014,05,02,03,10,9.30
2014,05,02,03,11,9.20
2014,05,02,03,12,9.20
2014,05,02,03,13,9.20
2014,05,02,03,14,9.20
2014,05,02,03,15,9.30
2014,05,02,03,16,9.30
2014,05,02,03,17,9.30
2014,05,02,03,18,9.30
2014,05,02,03,19,9.30
2014,05,02,03,20,9.30
2014,05,02,03,21,9.30
2014,05,02,03,22,9.30
2014,05,02,03,23,9.30
2014,05,02,03,24,9.30
2014,05,02,03,25,9.30
2014,05,02,03,26,9.40
2014,05,02,03,27,9.40
2014,05,02,03,28,9.50
2014,05,02,03,29,9.60
2014,05,02,03,30,9.60
2014,05,02,03,31,9.60
2014,05,02,03,32,9.60
2014,05,02,03,33,9.60
2014,05,02,03,34,9.60
2014,05,02,03,35,9.70
2014,05,02,03,36,9.70
2014,05,02,03,37,9.60
2014,05,02,03,38,9.60
2014,05,02,03,39,9.60
2014,05,02,03,40,9.60
2014,05,02,03,41,9.60
2014,05,02,03,42,9.60
2014,05,02,03,43,9.50
2014,05,02,03,44,9.50
2014,05,02,03,45,9.40
2014,05,02,03,46,9.30
2014,05,02,03,47,9.30
2014,05,02,03,48,9.30
2014,05,02,03,49,9.20
2014,05,02,03,50,9.20
2014,05,02,03,51,9.20
2014,05,02,03,52,9.10
2014,05,02,03,53,9.10
2014,05,02,03,54,9.00
2014,05,02,03,55,8.90
2014,05,02,03,56,8.90
2014,05,02,03,57,8.90
2014,05,02,03,58,9.00
2014,05,02,03,59,9.00
2014,05,02,04,00,9.10
2014,05,02,04,01,9.00
2014,05,02,04,02,9.10
2014,05,02,04,03,9.10
2014,05,02,04,04,9.10
2014,05,02,04,05,9.10
2014,05,02,04,06,9.10
2014,05,02,04,07,9.10
2014,05,02,04,08,9.10
2014,05,02,04,09,9.10
2014,05,02,04,10,9.10
2014,05,02,04,11,9.00
2014,05,02,04,12,8.90
2014,05,02,04,13,8.90
2014,05,02,04,14,8.90
2014,05,02,04,15,8.90
2014,05,02,04,16,8.80
2014,05,02,04,17,8.80
2014,05,02,04,18,8.80
2014,05,02,04,19,8.80
2014,05,02,04,20,8.70
2014,05,02,04,21,8.70
2014,05,02,04,22,8.70
2014,05,02,04,23,8.70
2014,05,02,04,24,8.70
2014,05,02,04,25,8.70
2014,05,02,04,26,8.70
2014,05,02,04,27,8.70
2014,05,02,04,28,8.70
2014,05,02,04,29,8.80
2014,05,02,04,30,8.80
2014,05,02,04,31,8.80
2014,05,02,04,32,8.80
2014,05,02,04,33,8.90
2014,05,02,04,34,8.90
2014,05,02,04,35,9.00
2014,05,02,04,36,9.00
2014,05,02,04,37,9.00
2014,05,02,04,38,9.10
2014,05,02,04,39,9.10
2014,05,02,04,40,9.10
2014,05,02,04,41,9.10
2014,05,02,04,42,9.10
2014,05,02,04,43,9.10
2014,05,02,04,44,9.00
2014,05,02,04,45,9.00
2014,05,02,04,46,9.00
2014,05,02,04,47,9.00
2014,05,02,04,48,9.00
2014,05,02,04,49,8.90
2014,05,02,04,50,8.90
2014,05,02,04,51,8.90
2014,05,02,04,52,8.90
2014,05,02,04,53,8.90
2014,05,02,04,54,8.80
2014,05,02,04,55,8.80
2014,05,02,04,56,8.80
2014,05,02,04,57,8.80
2014,05,02,04,58,8.80
2014,05,02,04,59,8.80
2014,05,02,05,00,8.80
2014,05,02,05,01,8.80
2014,05,02,05,02,8.70
2014,05,02,05,03,8.60
2014,05,02,05,04,8.60
2014,05,02,05,05,8.60
2014,05,02,05,06,8.60
2014,05,02,05,07,8.60
2014,05,02,05,08,8.60
2014,05,02,05,09,8.60
2014,05,02,05,10,8.60
2014,05,02,05,11,8.60
2014,05,02,05,12,8.60
2014,05,02,05,13,8.60
2014,05,02,05,14,8.60
2014,05,02,05,15,8.50
2014,05,02,05,16,8.50
2014,05,02,05,17,8.40
2014,05,02,05,18,8.40
2014,05,02,05,19,8.40
2014,05,02,05,20,8.40
2014,05,02,05,21,8.40
2014,05,02,05,22,8.40
2014,05,02,05,23,8.40
2014,05,02,05,24,8.40
2014,05,02,05,25,8.40
2014,05,02,05,26,8.40
2014,05,02,05,27,8.40
2014,05,02,05,28,8.30
2014,05,02,05,29,8.30
2014,05,02,05,30,8.30
2014,05,02,05,31,8.30
2014,05,02,05,32,8.30
2014,05,02,05,33,8.30
2014,05,02,05,34,8.30
2014,05,02,05,35,8.30
2014,05,02,05,36,8.30
2014,05,02,05,37,8.20
2014,05,02,05,38,8.20
2014,05,02,05,39,8.20
2014,05,02,05,40,8.20
2014,05,02,05,41,8.20
2014,05,02,05,42,8.20
2014,05,02,05,43,8.20
2014,05,02,05,44,8.20
2014,05,02,05,45,8.20
2014,05,02,05,46,8.30
2014,05,02,05,47,8.30
2014,05,02,05,48,8.30
2014,05,02,05,49,8.30
2014,05,02,05,50,8.40
2014,05,02,05,51,8.40
2014,05,02,05,52,8.40
2014,05,02,05,53,8.40
2014,05,02,05,54,8.40
2014,05,02,05,55,8.40
2014,05,02,05,56,8.40
2014,05,02,05,57,8.40
2014,05,02,05,58,8.30
2014,05,02,05,59,8.30
2014,05,02,06,00,8.30
2014,05,02,06,01,8.30
2014,05,02,06,02,8.30
2014,05,02,06,03,8.30
2014,05,02,06,04,8.30
2014,05,02,06,05,8.30
2014,05,02,06,06,8.40
2014,05,02,06,07,8.40
2014,05,02,06,08,8.40
2014,05,02,06,09,8.40
2014,05,02,06,10,8.40
2014,05,02,06,11,8.40
2014,05,02,06,12,8.40
2014,05,02,06,13,8.30
2014,05,02,06,14,8.20
2014,05,02,06,15,8.20
2014,05,02,06,16,8.10
2014,05,02,06,17,8.10
2014,05,02,06,18,8.10
2014,05,02,06,19,8.10
2014,05,02,06,20,8.10
2014,05,02,06,21,8.10
2014,05,02,06,22,8.10
2014,05,02,06,23,8.10
2014,05,02,06,24,8.10
2014,05,02,06,25,8.10
2014,05,02,06,26,8.10
2014,05,02,06,27,8.20
2014,05,02,06,28,8.20
2014,05,02,06,29,8.10
2014,05,02,06,30,8.10
2014,05,02,06,31,8.20
2014,05,02,06,32,8.20
2014,05,02,06,33,8.30
2014,05,02,06,34,8.30
2014,05,02,06,35,8.30
2014,05,02,06,36,8.40
2014,05,02,06,37,8.40
2014,05,02,06,38,8.40
2014,05,02,06,39,8.50
2014,05,02,06,40,8.50
2014,05,02,06,41,8.50
2014,05,02,06,42,8.60
2014,05,02,06,43,8.70
2014,05,02,06,44,8.80
2014,05,02,06,45,9.00
2014,05,02,06,46,9.10
2014,05,02,06,47,9.30
2014,05,02,06,48,9.40
2014,05,02,06,49,9.50
2014,05,02,06,50,9.60
2014,05,02,06,51,9.70
2014,05,02,06,52,9.70
2014,05,02,06,53,9.80
2014,05,02,06,54,9.90
2014,05,02,06,55,10.00
2014,05,02,06,56,10.10
2014,05,02,06,57,10.20
2014,05,02,06,58,10.30
2014,05,02,06,59,10.30
2014,05,02,07,00,10.40
2014,05,02,07,01,10.50
2014,05,02,07,02,10.50
2014,05,02,07,03,10.60
2014,05,02,07,04,10.60
2014,05,02,07,05,10.60
2014,05,02,07,06,10.70
2014,05,02,07,07,10.70
2014,05,02,07,08,10.80
2014,05,02,07,09,10.80
2014,05,02,07,10,10.90
2014,05,02,07,11,10.90
2014,05,02,07,12,11.00
2014,05,02,07,13,11.10
2014,05,02,07,14,11.10
2014,05,02,07,15,11.20
2014,05,02,07,16,11.30
2014,05,02,07,17,11.30
2014,05,02,07,18,11.30
2014,05,02,07,19,11.40
2014,05,02,07,20,11.40
2014,05,02,07,21,11.40
2014,05,02,07,22,11.50
2014,05,02,07,23,11.60
2014,05,02,07,24,11.60
2014,05,02,07,25,11.70
2014,05,02,07,26,11.80
2014,05,02,07,27,11.90
2014,05,02,07,28,11.90
2014,05,02,07,29,12.10
2014,05,02,07,30,12.20
2014,05,02,07,31,12.30
2014,05,02,07,32,12.50
2014,05,02,07,33,12.60
2014,05,02,07,34,12.80
2014,05,02,07,35,12.90
2014,05,02,07,36,13.00
2014,05,02,07,37,13.10
2014,05,02,07,38,13.10
2014,05,02,07,39,13.10
2014,05,02,07,40,13.20
2014,05,02,07,41,13.40
2014,05,02,07,42,13.50
2014,05,02,07,43,13.50
2014,05,02,07,44,13.50
2014,05,02,07,45,13.50
2014,05,02,07,46,13.60
2014,05,02,07,47,13.70
2014,05,02,07,48,13.70
2014,05,02,07,49,13.70
2014,05,02,07,50,13.70
2014,05,02,07,51,13.60
2014,05,02,07,52,13.60
2014,05,02,07,53,13.60
2014,05,02,07,54,13.60
2014,05,02,07,55,13.70
2014,05,02,07,56,13.70
2014,05,02,07,57,13.70
2014,05,02,07,58,13.70
2014,05,02,07,59,13.70
2014,05,02,08,00,13.80
2014,05,02,08,01,13.90
2014,05,02,08,02,13.90
2014,05,02,08,03,13.90
2014,05,02,08,04,13.80
2014,05,02,08,05,13.70
2014,05,02,08,06,13.70
2014,05,02,08,07,13.60
2014,05,02,08,08,13.50
2014,05,02,08,09,13.50
2014,05,02,08,10,13.50
2014,05,02,08,11,13.50
2014,05,02,08,12,13.50
2014,05,02,08,13,13.60
2014,05,02,08,14,13.70
2014,05,02,08,15,13.70
2014,05,02,08,16,13.80
2014,05,02,08,17,13.80
2014,05,02,08,18,13.70
2014,05,02,08,19,13.80
2014,05,02,08,20,13.80
2014,05,02,08,21,13.80
2014,05,02,08,22,13.80
2014,05,02,08,23,13.90
2014,05,02,08,24,13.90
2014,05,02,08,25,13.90
2014,05,02,08,26,13.90
2014,05,02,08,27,14.00
2014,05,02,08,28,14.00
2014,05,02,08,29,14.00
2014,05,02,08,30,14.10
2014,05,02,08,31,14.10
2014,05,02,08,32,14.20
2014,05,02,08,33,14.20
2014,05,02,08,34,14.30
2014,05,02,08,35,14.40
2014,05,02,08,36,14.60
2014,05,02,08,37,14.70
2014,05,02,08,38,14.80
2014,05,02,08,39,14.90
2014,05,02,08,40,15.00
2014,05,02,08,41,15.20
2014,05,02,08,42,15.30
2014,05,02,08,43,15.40
2014,05,02,08,44,15.40
2014,05,02,08,45,15.50
2014,05,02,08,46,15.50
2014,05,02,08,47,15.60
2014,05,02,08,48,15.70
2014,05,02,08,49,15.80
2014,05,02,08,50,16.00
2014,05,02,08,51,16.10
2014,05,02,08,52,16.20
2014,05,02,08,53,16.30
2014,05,02,08,54,16.40
2014,05,02,08,55,16.50
2014,05,02,08,56,16.70
2014,05,02,08,57,16.80
2014,05,02,08,58,16.80
2014,05,02,08,59,16.90
2014,05,02,09,00,17.00
2014,05,02,09,01,17.00
2014,05,02,09,02,17.10
2014,05,02,09,03,17.10
2014,05,02,09,04,17.10
2014,05,02,09,05,17.10
2014,05,02,09,06,17.20
2014,05,02,09,07,17.20
2014,05,02,09,08,17.20
2014,05,02,09,09,17.20
2014,05,02,09,10,17.20
2014,05,02,09,11,17.20
2014,05,02,09,12,17.30
2014,05,02,09,13,17.20
2014,05,02,09,14,17.20
2014,05,02,09,15,17.20
2014,05,02,09,16,17.20
2014,05,02,09,17,17.20
2014,05,02,09,18,17.20
2014,05,02,09,19,17.20
2014,05,02,09,20,17.20
2014,05,02,09,21,17.20
2014,05,02,09,22,17.20
2014,05,02,09,23,17.20
2014,05,02,09,24,17.20
2014,05,02,09,25,17.20
2014,05,02,09,26,17.20
2014,05,02,09,27,17.20
2014,05,02,09,28,17.30
2014,05,02,09,29,17.20
2014,05,02,09,30,17.20
2014,05,02,09,31,17.20
2014,05,02,09,32,17.30
2014,05,02,09,33,17.30
2014,05,02,09,34,17.30
2014,05,02,09,35,17.40
2014,05,02,09,36,17.40
2014,05,02,09,37,17.40
2014,05,02,09,38,17.40
2014,05,02,09,39,17.40
2014,05,02,09,40,17.40
2014,05,02,09,41,17.50
2014,05,02,09,42,17.50
2014,05,02,09,43,17.50
2014,05,02,09,44,17.60
2014,05,02,09,45,17.60
2014,05,02,09,46,17.60
2014,05,02,09,47,17.60
2014,05,02,09,48,17.70
2014,05,02,09,49,17.70
2014,05,02,09,50,17.70
2014,05,02,09,51,17.80
2014,05,02,09,52,17.80
2014,05,02,09,53,17.80
2014,05,02,09,54,17.80
2014,05,02,09,55,17.80
2014,05,02,09,56,17.80
2014,05,02,09,57,17.80
2014,05,02,09,58,17.80
2014,05,02,09,59,17.80
2014,05,02,10,00,17.70
2014,05,02,10,01,17.70
2014,05,02,10,02,17.70
2014,05,02,10,03,17.70
2014,05,02,10,04,17.70
2014,05,02,10,05,17.70
2014,05,02,10,06,17.70
2014,05,02,10,07,17.70
2014,05,02,10,08,17.70
2014,05,02,10,09,17.70
2014,05,02,10,10,17.60
2014,05,02,10,11,17.50
2014,05,02,10,12,17.40
2014,05,02,10,13,17.40
2014,05,02,10,14,17.30
2014,05,02,10,15,17.30
2014,05,02,10,16,17.30
2014,05,02,10,17,17.30
2014,05,02,10,18,17.30
2014,05,02,10,19,17.30
2014,05,02,10,20,17.30
2014,05,02,10,21,17.30
2014,05,02,10,22,17.40
2014,05,02,10,23,17.40
2014,05,02,10,24,17.50
2014,05,02,10,25,17.50
2014,05,02,10,26,17.60
2014,05,02,10,27,17.70
2014,05,02,10,28,17.70
2014,05,02,10,29,17.70
2014,05,02,10,30,17.70
2014,05,02,10,31,17.70
2014,05,02,10,32,17.70
2014,05,02,10,33,17.60
2014,05,02,10,34,17.60
2014,05,02,10,35,17.60
2014,05,02,10,36,17.60
2014,05,02,10,37,17.60
2014,05,02,10,38,17.50
2014,05,02,10,39,17.50
2014,05,02,10,40,17.50
2014,05,02,10,41,17.40
2014,05,02,10,42,17.40
2014,05,02,10,43,17.40
2014,05,02,10,44,17.40
2014,05,02,10,45,17.40
2014,05,02,10,46,17.40
2014,05,02,10,47,17.40
2014,05,02,10,48,17.40
2014,05,02,10,49,17.40
2014,05,02,10,50,17.40
2014,05,02,10,51,17.50
2014,05,02,10,52,17.50
2014,05,02,10,53,17.50
2014,05,02,10,54,17.50
2014,05,02,10,55,17.50
2014,05,02,10,56,17.50
2014,05,02,10,57,17.50
2014,05,02,10,58,17.60
2014,05,02,10,59,17.60
2014,05,02,11,00,17.60
2014,05,02,11,01,17.70
2014,05,02,11,02,17.70
2014,05,02,11,03,17.70
2014,05,02,11,04,17.80
2014,05,02,11,05,17.80
2014,05,02,11,06,17.80
2014,05,02,11,07,17.80
2014,05,02,11,08,17.80
2014,05,02,11,09,17.80
2014,05,02,11,10,17.80
2014,05,02,11,11,17.80
2014,05,02,11,12,17.90
2014,05,02,11,13,17.90
2014,05,02,11,14,17.90
2014,05,02,11,15,17.90
2014,05,02,11,16,17.90
2014,05,02,11,17,17.90
2014,05,02,11,18,17.90
2014,05,02,11,19,17.80
2014,05,02,11,20,17.80
2014,05,02,11,21,17.80
2014,05,02,11,22,17.80
2014,05,02,11,23,17.80
2014,05,02,11,24,17.90
2014,05,02,11,25,17.90
2014,05,02,11,26,17.90
2014,05,02,11,27,17.80
2014,05,02,11,28,17.80
2014,05,02,11,29,17.80
2014,05,02,11,30,17.80
2014,05,02,11,31,17.70
2014,05,02,11,32,17.70
2014,05,02,11,33,17.70
2014,05,02,11,34,17.70
2014,05,02,11,35,17.70
2014,05,02,11,36,17.70
2014,05,02,11,37,17.70
2014,05,02,11,38,17.70
2014,05,02,11,39,17.80
2014,05,02,11,40,17.80
2014,05,02,11,41,17.80
2014,05,02,11,42,17.90
2014,05,02,11,43,17.90
2014,05,02,11,44,18.00
2014,05,02,11,45,18.00
2014,05,02,11,46,18.00
2014,05,02,11,47,18.00
2014,05,02,11,48,18.00
2014,05,02,11,49,18.10
2014,05,02,11,50,18.00
2014,05,02,11,51,18.10
2014,05,02,11,52,18.10
2014,05,02,11,53,18.10
2014,05,02,11,54,18.10
2014,05,02,11,55,18.20
2014,05,02,11,56,18.20
2014,05,02,11,57,18.20
2014,05,02,11,58,18.20
2014,05,02,11,59,18.20
2014,05,02,12,00,18.20
2014,05,02,12,01,18.20
2014,05,02,12,02,18.20
2014,05,02,12,03,18.20
2014,05,02,12,04,18.10
2014,05,02,12,05,18.10
2014,05,02,12,06,18.10
2014,05,02,12,07,18.10
2014,05,02,12,08,18.10
2014,05,02,12,09,18.10
2014,05,02,12,10,18.10
2014,05,02,12,11,18.10
2014,05,02,12,12,18.10
2014,05,02,12,13,18.10
2014,05,02,12,14,18.10
2014,05,02,12,15,18.10
2014,05,02,12,16,18.20
2014,05,02,12,17,18.20
2014,05,02,12,18,18.10
2014,05,02,12,19,18.00
2014,05,02,12,20,18.00
2014,05,02,12,21,18.00
2014,05,02,12,22,18.00
2014,05,02,12,23,18.10
2014,05,02,12,24,18.10
2014,05,02,12,25,18.10
2014,05,02,12,26,18.00
2014,05,02,12,27,17.90
2014,05,02,12,28,17.90
2014,05,02,12,29,17.90
2014,05,02,12,30,17.80
2014,05,02,12,31,17.70
2014,05,02,12,32,17.60
2014,05,02,12,33,17.60
2014,05,02,12,34,17.50
2014,05,02,12,35,17.50
2014,05,02,12,36,17.50
2014,05,02,12,37,17.60
2014,05,02,12,38,17.60
2014,05,02,12,39,17.60
2014,05,02,12,40,17.60
2014,05,02,12,41,17.50
2014,05,02,12,42,17.50
2014,05,02,12,43,17.40
2014,05,02,12,44,17.40
2014,05,02,12,45,17.40
2014,05,02,12,46,17.50
2014,05,02,12,47,17.60
2014,05,02,12,48,17.60
2014,05,02,12,49,17.60
2014,05,02,12,50,17.60
2014,05,02,12,51,17.50
2014,05,02,12,52,17.60
2014,05,02,12,53,17.60
2014,05,02,12,54,17.60
2014,05,02,12,55,17.60
2014,05,02,12,56,17.60
2014,05,02,12,57,17.60
2014,05,02,12,58,17.70
2014,05,02,12,59,17.70
2014,05,02,13,00,17.70
2014,05,02,13,01,17.70
2014,05,02,13,02,17.70
2014,05,02,13,03,17.70
2014,05,02,13,04,17.60
2014,05,02,13,05,17.60
2014,05,02,13,06,17.60
2014,05,02,13,07,17.60
2014,05,02,13,08,17.60
2014,05,02,13,09,17.60
2014,05,02,13,10,17.60
2014,05,02,13,11,17.60
2014,05,02,13,12,17.60
2014,05,02,13,13,17.70
2014,05,02,13,14,17.70
2014,05,02,13,15,17.80
2014,05,02,13,16,17.80
2014,05,02,13,17,17.90
2014,05,02,13,18,17.90
2014,05,02,13,19,17.90
2014,05,02,13,20,18.00
2014,05,02,13,21,18.10
2014,05,02,13,22,18.10
2014,05,02,13,23,18.10
2014,05,02,13,24,18.10
2014,05,02,13,25,18.20
2014,05,02,13,26,18.20
2014,05,02,13,27,18.30
2014,05,02,13,28,18.30
2014,05,02,13,29,18.30
2014,05,02,13,30,18.40
2014,05,02,13,31,18.40
2014,05,02,13,32,18.50
2014,05,02,13,33,18.50
2014,05,02,13,34,18.50
2014,05,02,13,35,18.40
2014,05,02,13,36,18.40
2014,05,02,13,37,18.40
2014,05,02,13,38,18.40
2014,05,02,13,39,18.40
2014,05,02,13,40,18.40
2014,05,02,13,41,18.30
2014,05,02,13,42,18.30
2014,05,02,13,43,18.30
2014,05,02,13,44,18.40
2014,05,02,13,45,18.40
2014,05,02,13,46,18.50
2014,05,02,13,47,18.50
2014,05,02,13,48,18.50
2014,05,02,13,49,18.60
2014,05,02,13,50,18.60
2014,05,02,13,51,18.70
2014,05,02,13,52,18.70
2014,05,02,13,53,18.70
2014,05,02,13,54,18.60
2014,05,02,13,55,18.60
2014,05,02,13,56,18.50
2014,05,02,13,57,18.40
2014,05,02,13,58,18.40
2014,05,02,13,59,18.40
2014,05,02,14,00,18.30
2014,05,02,14,01,18.30
2014,05,02,14,02,18.30
2014,05,02,14,03,18.30
2014,05,02,14,04,18.40
2014,05,02,14,05,18.40
2014,05,02,14,06,18.40
2014,05,02,14,07,18.40
2014,05,02,14,08,18.50
2014,05,02,14,09,18.60
2014,05,02,14,10,18.60
2014,05,02,14,11,18.60
2014,05,02,14,12,18.60
2014,05,02,14,13,18.60
2014,05,02,14,14,18.60
2014,05,02,14,15,18.60
2014,05,02,14,16,18.70
2014,05,02,14,17,18.80
2014,05,02,14,18,18.80
2014,05,02,14,19,18.90
2014,05,02,14,20,18.80
2014,05,02,14,21,18.80
2014,05,02,14,22,18.80
2014,05,02,14,23,18.70
2014,05,02,14,24,18.60
2014,05,02,14,25,18.60
2014,05,02,14,26,18.60
2014,05,02,14,27,18.50
2014,05,02,14,28,18.40
2014,05,02,14,29,18.30
2014,05,02,14,30,18.20
2014,05,02,14,31,18.10
2014,05,02,14,32,18.10
2014,05,02,14,33,18.10
2014,05,02,14,34,18.00
2014,05,02,14,35,18.00
2014,05,02,14,36,18.00
2014,05,02,14,37,17.90
2014,05,02,14,38,17.90
2014,05,02,14,39,17.90
2014,05,02,14,40,17.90
2014,05,02,14,41,17.80
2014,05,02,14,42,17.80
2014,05,02,14,43,17.80
2014,05,02,14,44,17.80
2014,05,02,14,45,17.80
2014,05,02,14,46,17.80
2014,05,02,14,47,17.70
2014,05,02,14,48,17.70
2014,05,02,14,49,17.70
2014,05,02,14,50,17.70
2014,05,02,14,51,17.70
2014,05,02,14,52,17.60
2014,05,02,14,53,17.60
2014,05,02,14,54,17.50
2014,05,02,14,55,17.40
2014,05,02,14,56,17.40
2014,05,02,14,57,17.40
2014,05,02,14,58,17.40
2014,05,02,14,59,17.40
2014,05,02,15,00,17.40
2014,05,02,15,01,17.40
2014,05,02,15,02,17.40
2014,05,02,15,03,17.40
2014,05,02,15,04,17.40
2014,05,02,15,05,17.40
2014,05,02,15,06,17.40
2014,05,02,15,07,17.40
2014,05,02,15,08,17.40
2014,05,02,15,09,17.40
2014,05,02,15,10,17.40
2014,05,02,15,11,17.30
2014,05,02,15,12,17.30
2014,05,02,15,13,17.30
2014,05,02,15,14,17.30
2014,05,02,15,15,17.30
2014,05,02,15,16,17.40
2014,05,02,15,17,17.40
2014,05,02,15,18,17.40
2014,05,02,15,19,17.40
2014,05,02,15,20,17.40
2014,05,02,15,21,17.40
2014,05,02,15,22,17.40
2014,05,02,15,23,17.40
2014,05,02,15,24,17.40
2014,05,02,15,25,17.40
2014,05,02,15,26,17.40
2014,05,02,15,27,17.40
2014,05,02,15,28,17.40
2014,05,02,15,29,17.50
2014,05,02,15,30,17.50
2014,05,02,15,31,17.50
2014,05,02,15,32,17.50
2014,05,02,15,33,17.60
2014,05,02,15,34,17.60
2014,05,02,15,35,17.60
2014,05,02,15,36,17.60
2014,05,02,15,37,17.60
2014,05,02,15,38,17.70
2014,05,02,15,39,17.70
2014,05,02,15,40,17.70
2014,05,02,15,41,17.70
2014,05,02,15,42,17.80
2014,05,02,15,43,17.80
2014,05,02,15,44,17.90
2014,05,02,15,45,17.90
2014,05,02,15,46,17.90
2014,05,02,15,47,18.00
2014,05,02,15,48,18.00
2014,05,02,15,49,18.10
2014,05,02,15,50,18.20
2014,05,02,15,51,18.30
2014,05,02,15,52,18.40
2014,05,02,15,53,18.50
2014,05,02,15,54,18.60
2014,05,02,15,55,18.50
2014,05,02,15,56,18.50
2014,05,02,15,57,18.40
2014,05,02,15,58,18.40
2014,05,02,15,59,18.30
2014,05,02,16,00,18.30
2014,05,02,16,01,18.30
2014,05,02,16,02,18.40
2014,05,02,16,03,18.40
2014,05,02,16,04,18.50
2014,05,02,16,05,18.60
2014,05,02,16,06,18.60
2014,05,02,16,07,18.60
2014,05,02,16,08,18.70
2014,05,02,16,09,18.70
2014,05,02,16,10,18.70
2014,05,02,16,11,18.70
2014,05,02,16,12,18.60
2014,05,02,16,13,18.50
2014,05,02,16,14,18.50
2014,05,02,16,15,18.40
2014,05,02,16,16,18.40
2014,05,02,16,17,18.40
2014,05,02,16,18,18.40
2014,05,02,16,19,18.40
2014,05,02,16,20,18.50
2014,05,02,16,21,18.50
2014,05,02,16,22,18.50
2014,05,02,16,23,18.40
2014,05,02,16,24,18.30
2014,05,02,16,25,18.30
2014,05,02,16,26,18.30
2014,05,02,16,27,18.30
2014,05,02,16,28,18.20
2014,05,02,16,29,18.20
2014,05,02,16,30,18.10
2014,05,02,16,31,18.10
2014,05,02,16,32,18.10
2014,05,02,16,33,18.10
2014,05,02,16,34,18.00
2014,05,02,16,35,17.90
2014,05,02,16,36,17.90
2014,05,02,16,37,17.80
2014,05,02,16,38,17.80
2014,05,02,16,39,17.70
2014,05,02,16,40,17.70
2014,05,02,16,41,17.60
2014,05,02,16,42,17.60
2014,05,02,16,43,17.60
2014,05,02,16,44,17.50
2014,05,02,16,45,17.50
2014,05,02,16,46,17.40
2014,05,02,16,47,17.30
2014,05,02,16,48,17.20
2014,05,02,16,49,17.20
2014,05,02,16,50,17.20
2014,05,02,16,51,17.10
2014,05,02,16,52,17.10
2014,05,02,16,53,17.10
2014,05,02,16,54,17.20
2014,05,02,16,55,17.20
2014,05,02,16,56,17.20
2014,05,02,16,57,17.20
2014,05,02,16,58,17.20
2014,05,02,16,59,17.20
2014,05,02,17,00,17.30
2014,05,02,17,01,17.30
2014,05,02,17,02,17.30
2014,05,02,17,03,17.30
2014,05,02,17,04,17.30
2014,05,02,17,05,17.30
2014,05,02,17,06,17.30
2014,05,02,17,07,17.30
2014,05,02,17,08,17.40
2014,05,02,17,09,17.40
2014,05,02,17,10,17.30
2014,05,02,17,11,17.30
2014,05,02,17,12,17.30
2014,05,02,17,13,17.30
2014,05,02,17,14,17.30
2014,05,02,17,15,17.30
2014,05,02,17,16,17.30
2014,05,02,17,17,17.40
2014,05,02,17,18,17.40
2014,05,02,17,19,17.40
2014,05,02,17,20,17.40
2014,05,02,17,21,17.40
2014,05,02,17,22,17.30
2014,05,02,17,23,17.30
2014,05,02,17,24,17.20
2014,05,02,17,25,17.20
2014,05,02,17,26,17.20
2014,05,02,17,27,17.20
2014,05,02,17,28,17.20
2014,05,02,17,29,17.20
2014,05,02,17,30,17.30
2014,05,02,17,31,17.30
2014,05,02,17,32,17.40
2014,05,02,17,33,17.40